Regional Weather Roundup
Issued by NWS

Home | Current Version | Previous Version | Text Only | Print | Product List | Glossary Off
Versions: 1 2 3 4 5 6 7 8 9 10 11 12 13 14 15 16 17 18 19 20 21 22 23 24 25 26 27 28 29 30 31 32 33 34 35 36 37 38 39 40 41 42 43 44 45 46 47 48 49 50

000
ASUS43 KMKX 041000
RWRWI

WISCONSIN REGIONAL WEATHER ROUNDUP
NATIONAL WEATHER SERVICE MILWAUKEE/SULLIVAN WI
500 AM CDT MON MAY 04 2015

NOTE: "FAIR" INDICATES FEW OR NO CLOUDS BELOW 12,000 FEET WITH NO
SIGNIFICANT WEATHER AND/OR OBSTRUCTIONS TO VISIBILITY.

WIZ001-002-006>008-014>016-023>028-041100-
NORTHWEST WISCONSIN

CITY           SKY/WX    TMP DP  RH WIND       PRES   REMARKS
SUPERIOR ARPT  CLEAR     48  35  61 N6        30.06R
ASHLAND        CLEAR     41  34  76 S3        30.04R
HAYWARD        CLEAR     39  36  89 CALM      30.05R
SIREN          CLEAR     43  32  64 CALM      30.05R
CUMBERLAND     CLEAR     48  32  53 N8        30.03R
RICE LAKE      CLEAR     51  35  52 N8        30.03R
CHETEK         CLEAR     50  42  73 NW3       30.02R
LADYSMITH      CLEAR     51  40  67 N10       30.03R
EAU CLAIRE     CLEAR     53  42  66 N8        30.00R
MENOMONIE      CLEAR     53  43  68 NW13      30.01R
NEW RICHMOND   CLEAR     49  36  61 N6        30.04R
OSCEOLA        CLEAR     49  38  64 N5        30.06R
$$

WIZ003>005-009-010-017-018-041100-
NORTH CENTRAL WISCONSIN

CITY           SKY/WX    TMP DP  RH WIND       PRES   REMARKS
MANITOWISH WTR PTCLDY    49  37  61 N8        29.98R
ARBOR VITAE    CLEAR     52  41  67 N12       29.96R
WOODRUFF       CLEAR     52  41  67 N12       29.96R
RHINELANDER    CLEAR     50  44  80 N3        29.97R
EAGLE RIVER    PTCLDY    49  42  74 N8        29.95R
LAND O LAKES   PTCLDY    51  40  67 N8        29.97R
PHILLIPS       CLEAR     47  40  76 NW7       29.99R
TOMAHAWK       PTCLDY    46  45  97 NW3       29.96R
MEDFORD        CLEAR     50  46  87 N7        29.96R
MERRILL        PTCLDY    50  49  94 N5        29.95R
$$

WIZ029-030-035-036-043>047-041100-
CENTRAL WISCONSIN

CITY           SKY/WX    TMP DP  RH WIND       PRES   REMARKS
WAUSAU         MOCLDY    53  50  89 NW3       29.95R
MOSINEE        MOCLDY    52  52 100 N3        29.96R
MARSHFIELD     PTCLDY    53  52  96 N6        29.97R
STEVENS POINT  FOG       51  51  99 CALM      29.96R VSB 1/4
WAUPACA        CLOUDY    58  58  98 NW6       29.93R
WAUTOMA        NOT AVBL
WISC RAPIDS    FOG       54  51  90 CALM      29.97R VSB 1/4
CAMP DOUGLAS   CLOUDY    57  57 100 W6        29.96R
$$

WIZ011>013-019>022-031-037>040-048>050-041100-
NORTHEAST WISCONSIN

CITY           SKY/WX    TMP DP  RH WIND       PRES   REMARKS
ANTIGO         MOCLDY    50  50  99 CALM      29.95R
SHAWANO        CLOUDY    58  56  94 W5        29.92R FOG
OCONTO         CLOUDY    57  57 100 NW5       29.90R
STURGEON BAY   CLOUDY    57  54  88 SW3       29.93R
GREEN BAY      CLOUDY    58  56  93 NW8       29.91R
MANITOWOC      NOT AVBL
APPLETON       CLOUDY    55  55 100 NW8       29.91R
CLINTONVILLE   CLOUDY    55  55 100 NW6       29.93R
OSHKOSH        CLOUDY    57  55  93 W7        29.92R
$$

WIZ032>034-041-042-053>061-041100-
SOUTHWEST WISCONSIN

CITY           SKY/WX    TMP DP  RH WIND       PRES   REMARKS
LA CROSSE      MOCLDY    59  56  89 NW9       29.96R
SPARTA         CLOUDY    57  56  95 CALM      29.97R
VIROQUA        CLOUDY    56  56 100 CALM      29.97R
BOSCOBEL       CLOUDY    58  57  97 CALM      29.98R
PRAIRIE DU CHI CLOUDY    57  56  95 W3        29.96R
PLATTEVILLE    CLOUDY    57  56  96 W7        29.95R
$$

WIZ056-057-062-063-064-067-068-041100-
SOUTH CENTRAL WISCONSIN

CITY           SKY/WX    TMP DP  RH WIND       PRES   REMARKS
REEDSBURG      CLOUDY    56  56  98 CALM      29.94R
BARABOO/DELLS  NOT AVBL
LONE ROCK      NOT AVBL
MINERAL POINT  CLOUDY    55  55 100 CALM      29.94R
MADISON        CLOUDY    57  55  93 NW3       29.93R
MIDDLETON      CLOUDY    56  56  97 NW6       29.93R
WATERTOWN      CLOUDY    56  56 100 CALM      29.90R
MONROE         CLOUDY    55  55 100 CALM      29.93R
JANESVILLE     FOG       55  54  94 CALM      29.91R VSB 1/2
$$

WIZ051-052-058>065-066-070>072-041100-
SOUTHEAST WISCONSIN

CITY           SKY/WX    TMP DP  RH WIND       PRES   REMARKS
MILWAUKEE      CLOUDY    61  53  75 NW6       29.89S
WAUKESHA       CLOUDY    55  54  94 SW3       29.91R
MILWAUKEE/TIMM CLOUDY    59  54  82 SW3       29.90R
RACINE         CLOUDY    61  53  75 W3        29.90S
BURLINGTON     CLOUDY    54  53  98 CALM      29.90R FOG
KENOSHA        CLOUDY    59  55  87 NW3       29.89F
FOND DU LAC    CLOUDY    58  55  90 W8        29.92R
SHEBOYGAN      CLOUDY    58  57  97 S3        29.90R
WEST BEND      CLOUDY    59  55  88 SE3       29.88R
JUNEAU         CLOUDY    56  55  98 NW9       29.93R
$$

LSZ147-162-041100-
LAKE SUPERIOR

STATION/POSITION TIME  TEMP    WIND        PRES    WAVE
                       AIR SEA DIR/SP/G            HT/PER
                 (UTC) (F)     (DEG/KT/KT) (MB)    (FT/S)
W MID LAKE BUOY  0850   40 35  300/  8/  8 1015.4R   1
DEVILS ISLAND    0900   47     320/  9/ 11 1016.7R
PORT WING        0900   40     180/  3/  4 1017.3R
SAXON HARBOR     0900   49     320/  6/  9 1015.9
$$

LMZ867-665-643>646-041100-
LAKE MICHIGAN

STATION/POSITION TIME  TEMP    WIND        PRES    WAVE
                       AIR SEA DIR/SP/G            HT/PER
                 (UTC) (F)     (DEG/KT/KT) (MB)    (FT/S)
CHAMBERS ISLAND  0900   56     170/  2/  4 1011.9S
NORTHPORT PIER   0900   57     170/  2/  6 1011.5S
KEWAUNEE LAKESHO 0900   54     170/ 12/ 15 1011.4R
SHEBOYGAN LAKESH 0900   54      50/ 10/ 10 1010.5F
PORT WASHINGTON  0940   54     190/  3/  4 1012.2F
ATWATER BUOY     0900   53      20/  6/  8 1012.8S
MILWAUKEE LAKESH 0900   63     340/  6/  8   N/A
KENOSHA   LAKESH 0900   64     250/  6/  9 1012.5S
$$

TC  - TEMPERATURE IN CELSIUS
VSB - VISIBILITY IN STATUTE MILES
WCI - WIND CHILL INDEX
HX  - HEAT INDEX




USA.gov is the U.S. government's official web portal to all federal, state and local government web resources and services.